TimeCST,TemperatureF,Dew PointF,Humidity,Sea Level PressureIn,VisibilityMPH,Wind Direction,Wind SpeedMPH,Gust SpeedMPH,PrecipitationIn,Events,Conditions,WindDirDegrees,DateUTC
12:55 AM,21.9,19.9,92,29.96,10.0,WNW,4.6,-,N/A,,Overcast,290,2012-12-29 06:55:00
1:41 AM,21.2,19.4,93,29.96,10.0,WNW,5.8,-,N/A,Snow,Light Snow,290,2012-12-29 07:41:00
1:46 AM,21.2,19.4,93,29.96,10.0,WNW,5.8,-,N/A,,Overcast,290,2012-12-29 07:46:00
1:55 AM,21.7,19.8,92,29.96,10.0,WNW,5.8,-,0.00,,Overcast,300,2012-12-29 07:55:00
2:42 AM,21.2,19.4,93,29.96,10.0,WNW,6.9,-,N/A,Snow,Light Snow,300,2012-12-29 08:42:00
2:55 AM,21.9,19.8,91,29.96,10.0,WNW,6.9,-,0.00,Snow,Light Snow,300,2012-12-29 08:55:00
3:13 AM,21.2,19.4,93,29.96,10.0,WNW,6.9,-,N/A,Snow,Light Snow,300,2012-12-29 09:13:00
3:30 AM,21.2,19.4,93,29.96,10.0,WNW,6.9,-,N/A,,Overcast,290,2012-12-29 09:30:00
3:55 AM,21.7,19.2,90,29.97,10.0,WNW,8.1,-,0.00,,Overcast,290,2012-12-29 09:55:00
4:03 AM,21.2,19.4,93,29.97,10.0,WNW,6.9,-,N/A,Snow,Light Snow,290,2012-12-29 10:03:00
4:55 AM,21.4,18.9,90,29.97,10.0,WNW,9.2,-,0.00,Snow,Light Snow,300,2012-12-29 10:55:00
4:56 AM,21.2,19.4,93,29.97,10.0,WNW,8.1,-,N/A,,Overcast,300,2012-12-29 10:56:00
5:11 AM,21.2,19.4,93,29.97,10.0,WNW,9.2,-,N/A,Snow,Light Snow,300,2012-12-29 11:11:00
5:46 AM,21.2,19.4,93,29.98,10.0,WNW,9.2,-,N/A,Snow,Light Snow,300,2012-12-29 11:46:00
5:55 AM,20.8,18.5,91,29.99,10.0,WNW,8.1,-,0.00,Snow,Light Snow,290,2012-12-29 11:55:00
6:07 AM,21.2,17.6,86,29.99,8.0,WNW,8.1,-,N/A,Snow,Light Snow,290,2012-12-29 12:07:00
6:09 AM,21.2,17.6,86,29.99,8.0,WNW,9.2,-,N/A,Snow,Light Snow,290,2012-12-29 12:09:00
6:11 AM,21.2,17.6,86,29.99,8.0,WNW,8.1,-,N/A,Snow,Light Snow,300,2012-12-29 12:11:00
6:55 AM,20.5,17.8,89,30.00,5.0,WNW,10.4,-,0.00,Snow,Light Snow,290,2012-12-29 12:55:00
7:20 AM,19.4,17.6,93,30.00,5.0,WNW,11.5,-,N/A,Snow,Light Snow,290,2012-12-29 13:20:00
7:55 AM,19.9,17.2,89,30.01,6.0,WNW,10.4,-,0.00,Snow,Light Snow,300,2012-12-29 13:55:00
8:55 AM,19.4,15.8,86,30.03,7.0,WNW,12.7,-,N/A,Snow,Light Snow,300,2012-12-29 14:55:00
9:43 AM,19.4,15.8,86,30.00,10.0,WNW,13.8,-,N/A,,Overcast,300,2012-12-29 15:43:00
9:55 AM,19.4,15.8,86,30.05,10.0,WNW,11.5,-,N/A,,Overcast,300,2012-12-29 15:55:00
10:31 AM,21.2,15.8,80,30.01,10.0,WNW,10.4,-,N/A,Snow,Light Snow,300,2012-12-29 16:31:00
10:55 AM,21.2,17.6,86,30.05,10.0,WNW,12.7,-,N/A,,Overcast,300,2012-12-29 16:55:00
11:23 AM,23.0,17.6,80,30.00,10.0,WNW,11.5,-,N/A,,Overcast,300,2012-12-29 17:23:00
11:55 AM,21.2,17.6,86,30.05,10.0,West,16.1,-,N/A,,Overcast,280,2012-12-29 17:55:00
12:55 PM,21.2,16.0,80,30.06,10.0,WNW,13.8,-,N/A,,Overcast,290,2012-12-29 18:55:00
1:35 PM,21.2,15.8,80,30.06,10.0,WNW,12.7,-,N/A,,Overcast,290,2012-12-29 19:35:00
1:55 PM,21.0,15.3,78,30.06,10.0,NW,13.8,-,N/A,,Overcast,310,2012-12-29 19:55:00
2:55 PM,20.8,15.3,79,30.08,10.0,West,13.8,-,N/A,,Overcast,280,2012-12-29 20:55:00
3:55 PM,19.9,14.2,78,30.10,10.0,WNW,9.2,-,N/A,,Overcast,300,2012-12-29 21:55:00
4:55 PM,19.9,14.4,79,30.12,10.0,West,10.4,-,N/A,,Overcast,280,2012-12-29 22:55:00
5:55 PM,18.9,12.9,78,30.13,10.0,West,8.1,-,N/A,,Overcast,280,2012-12-29 23:55:00
6:55 PM,14.0,10.0,84,30.15,10.0,Calm,Calm,-,N/A,,Overcast,0,2012-12-30 00:55:00
7:08 PM,12.2,10.4,92,30.15,10.0,WSW,3.5,-,N/A,,Scattered Clouds,250,2012-12-30 01:08:00
7:55 PM,6.3,2.8,86,30.17,6.0,WSW,3.5,-,N/A,,Clear,250,2012-12-30 01:55:00
8:31 PM,3.2,-0.4,85,30.18,10.0,WSW,4.6,-,N/A,,Mostly Cloudy,250,2012-12-30 02:31:00
8:35 PM,5.0,1.4,85,30.18,10.0,WSW,3.5,-,N/A,,Scattered Clouds,250,2012-12-30 02:35:00
8:55 PM,3.9,0.7,86,30.18,10.0,Calm,Calm,-,N/A,,Partly Cloudy,0,2012-12-30 02:55:00
9:19 PM,3.2,-0.4,85,30.18,2.5,Calm,Calm,-,N/A,,Clear,0,2012-12-30 03:19:00
9:20 PM,3.2,-0.4,85,30.17,2.0,Calm,Calm,-,N/A,,Clear,0,2012-12-30 03:20:00
9:21 PM,3.2,-0.4,85,30.18,1.5,Calm,Calm,-,N/A,,Clear,0,2012-12-30 03:21:00
9:22 PM,3.2,-0.4,85,30.18,1.0,Calm,Calm,-,N/A,,Clear,0,2012-12-30 03:22:00
9:23 PM,3.2,-0.4,85,30.18,0.8,Calm,Calm,-,N/A,,Clear,0,2012-12-30 03:23:00
9:25 PM,3.2,-0.4,85,30.18,0.5,Calm,Calm,-,N/A,Fog,Light Freezing Fog,0,2012-12-30 03:25:00
9:28 PM,3.2,-2.2,78,30.18,0.2,Calm,Calm,-,N/A,Fog,Light Freezing Fog,0,2012-12-30 03:28:00
9:39 PM,1.4,-2.2,85,30.18,0.5,Calm,Calm,-,N/A,Fog,Light Freezing Fog,0,2012-12-30 03:39:00
9:42 PM,3.2,-0.4,85,30.18,0.8,SSW,3.5,-,N/A,,Scattered Clouds,210,2012-12-30 03:42:00
9:44 PM,3.2,1.4,92,30.18,1.0,SSW,3.5,-,N/A,,Scattered Clouds,200,2012-12-30 03:44:00
9:45 PM,5.0,1.4,85,30.18,1.5,SSW,3.5,-,N/A,,Scattered Clouds,200,2012-12-30 03:45:00
9:46 PM,5.0,1.4,85,30.18,2.0,SSW,3.5,-,N/A,,Scattered Clouds,200,2012-12-30 03:46:00
9:47 PM,5.0,1.4,85,30.18,3.0,SSW,3.5,-,N/A,,Scattered Clouds,200,2012-12-30 03:47:00
9:55 PM,5.0,1.9,87,30.19,5.0,SW,4.6,-,N/A,,Mostly Cloudy,230,2012-12-30 03:55:00
10:55 PM,12.7,10.0,89,30.19,10.0,WSW,9.2,-,N/A,,Overcast,250,2012-12-30 04:55:00
11:55 PM,12.2,9.5,89,30.19,10.0,Calm,Calm,-,N/A,,Mostly Cloudy,0,2012-12-30 05:55:00